QPF
0.00 0.00 0.00 0.00 0.00 0.00 0.00 0.00 0.00 0.00 0.00 0.00 0.00 0.00 0.00 0.00 0.00 0.00 0.00 0.00 0.00 0.00 0.00 0.00 0.00 0.00 0.00 0.00 0.00 0.00 0.00 0.00 0.00 0.00 0.00 0.00 0.00 0.00 0.00 0.00 0.00 0.00 0.00 0.00 0.00 0.00 0.00 0.00 0.00
0.00 0.00 0.00 0.00 0.00 0.00 0.00 0.00 0.00 0.00 0.00 0.00 0.00 0.00 0.00 0.00 0.00 0.00 0.00 0.00 0.00 0.00 0.00 0.00 0.00 0.00 0.00 0.00 0.00 0.00 0.00 0.00 0.00 0.00 0.00 0.00 0.00 0.00 0.00 0.00 0.00 0.00 0.00 0.00 0.00 0.00 0.00 0.00 0.00
0.00 0.00 0.00 0.00 0.00 0.00 0.00 0.00 0.00 0.00 0.00 0.00 0.00 0.00 0.00 0.00 0.00 0.00 0.00 0.00 0.00 0.00 0.00 0.00 0.00 0.00 0.00 0.00 0.00 0.00 0.00 0.00 0.00 0.00 0.00 0.00 0.00 0.00 0.00 0.00 0.00 0.00 0.00 0.00 0.00 0.00 0.00 0.00 0.00
0.00 0.00 0.00 0.00 0.00 0.00 0.00 0.00 0.00 0.00 0.00 0.00 0.00 0.00 0.00 0.00 0.00 0.00 0.00 0.00 0.00 0.00 0.00 0.00 0.00 0.00 0.00 0.00 0.00 0.00 0.00 0.00 0.00 0.00 0.00 0.00 0.00 0.00 0.00 0.00 0.00 0.00 0.00 0.00 0.00 0.00 0.00 0.00 0.00
0.00 0.00 0.00 0.00 0.00 0.00 0.00 0.00 0.00 0.00 0.00 0.00 0.00 0.00 0.00 0.00 0.00 0.00 0.00 0.00 0.00 0.00 0.00 0.00 0.00 0.00 0.00 0.00 0.00 0.00 0.00 0.00 0.00 0.00 0.00 0.00 0.00 0.00 0.00 0.00 0.00 0.00 0.00 0.00 0.00 0.00 0.00 0.00 0.00
0.00 0.00 0.00 0.00 0.00 0.00 0.00 0.00 0.00 0.00 0.00 0.00 0.00 0.00 0.00 0.00 0.00 0.00 0.00 0.00 0.00 0.00 0.00 0.00 0.00 0.00 0.00 0.00 0.00 0.00 0.00 0.00 0.00 0.00 0.00 0.00 0.00 0.00 0.00 0.00 0.00 0.00 0.00 0.00 0.00 0.00 0.00 0.00 0.00
0.00 0.00 0.00 0.00 0.00 0.00 0.00 0.00 0.00 0.00 0.00 0.00 0.00 0.00 0.00 0.00 0.00 0.00 0.00 0.00 0.00 0.00 0.00 0.00 0.00 0.00 0.00 0.00 0.00 0.00 0.00 0.00 0.00 0.00 0.00 0.00 0.00 0.00 0.00 0.00 0.00 0.00 0.00 0.00 0.00 0.00 0.00 0.00 0.00
0.00 0.00 0.00 0.00 0.00 0.00 0.00 0.00 0.00 0.00 0.00 0.00 0.00 0.00 0.00 0.00 0.00 0.00 0.00 0.00 0.00 0.00 0.00 0.00 0.00 0.00 0.00 0.00 0.00 0.00 0.00 0.00 0.00 0.00 0.00 0.00 0.00 0.00 0.00 0.00 0.00 0.00 0.00 0.00 0.00 0.00 0.00 0.00 0.00
0.00 0.00 0.00 0.00 0.00 0.00 0.00 0.00 0.00 0.00 0.00 0.00 0.00 0.00 0.00 0.00 0.00 0.00 0.00 0.00 0.00 0.00 0.00 0.00 0.00 0.00 0.00 0.00 0.00 0.00 0.00 0.00 0.00 0.00 0.00 0.00 0.00 0.00 0.00 0.00 0.00 0.00 0.00 0.00 0.00 0.00 0.00 0.00 0.00
0.00 0.00 0.00 0.00 0.00 0.00 0.00 0.00 0.00 0.00 0.00 0.00 0.00 0.00 0.00 0.00 0.00 0.00 0.00 0.00 0.00 0.00 0.00 0.00 0.00 0.00 0.00 0.00 0.00 0.00 0.00 0.00 0.00 0.00 0.00 0.00 0.00 0.00 0.00 0.00 0.00 0.00 0.00 0.00 0.00 0.00 0.00 0.00 0.00
0.00 0.00 0.00 0.00 0.00 0.00 0.00 0.00 0.00 0.00 0.00 0.00 0.00 0.00 0.00 0.00 0.00 0.00 0.00 0.00 0.00 0.00 0.00 0.00 0.00 0.00 0.00 0.00 0.00 0.00 0.00 0.00 0.00 0.00 0.00 0.00 0.00 0.00 0.00 0.00 0.00 0.00 0.00 0.00 0.00 0.00 0.00 0.00 0.00
0.00 0.00 0.00 0.00 0.00 0.00 0.00 0.00 0.00 0.00 0.00 0.00 0.00 0.00 0.00 0.00 0.00 0.00 0.00 0.00 0.00 0.00 0.00 0.00 0.00 0.00 0.00 0.00 0.00 0.00 0.00 0.00 0.00 0.00 0.00 0.00 0.00 0.00 0.00 0.00 0.00 0.00 0.00 0.00 0.00 0.00 0.00 0.00 0.00
0.00 0.00 0.00 0.00 0.00 0.00 0.00 0.00 0.00 0.00 0.00 0.00 0.00 0.00 0.00 0.00 0.00 0.00 0.00 0.00 0.00 0.00 0.00 0.00 0.00 0.00 0.00 0.00 0.00 0.00 0.00 0.00 0.00 0.00 0.00 0.00 0.00 0.00 0.00 0.00 0.00 0.00 0.00 0.00 0.00 0.00 0.00 0.00 0.00
0.00 0.00 0.00 0.00 0.00 0.00 0.00 0.00 0.00 0.00 0.00 0.00 0.00 0.00 0.00 0.00 0.00 0.00 0.00 0.00 0.00 0.00 0.00 0.00 0.00 0.00 0.00 0.00 0.00 0.00 0.00 0.00 0.00 0.00 0.00 0.00 0.00 0.00 0.00 0.00 0.00 0.00 0.00 0.00 0.00 0.00 0.00 0.00 0.00
0.00 0.00 0.00 0.00 0.00 0.00 0.00 0.00 0.00 0.00 0.00 0.00 0.00 0.00 0.00 0.00 0.00 0.00 0.00 0.00 0.00 0.00 0.00 0.00 0.00 0.00 0.00 0.00 0.00 0.00 0.00 0.00 0.00 0.00 0.00 0.00 0.00 0.00 0.00 0.00 0.00 0.00 0.00 0.00 0.00 0.00 0.00 0.00 0.00
0.00 0.00 0.00 0.00 0.00 0.00 0.00 0.00 0.00 0.00 0.00 0.00 0.00 0.00 0.00 0.00 0.00 0.00 0.00 0.00 0.00 0.00 0.00 0.00 0.00 0.00 0.00 0.00 0.00 0.00 0.00 0.00 0.00 0.00 0.00 0.00 0.00 0.00 0.00 0.00 0.00 0.00 0.00 0.00 0.00 0.00 0.00 0.00 0.00
0.00 0.00 0.00 0.00 0.00 0.00 0.00 0.00 0.00 0.00 0.00 0.00 0.00 0.00 0.00 0.00 0.00 0.00 0.00 0.00 0.00 0.00 0.00 0.00 0.00 0.00 0.00 0.00 0.00 0.00 0.00 0.00 0.00 0.00 0.00 0.00 0.00 0.00 0.00 0.00 0.00 0.00 0.00 0.00 0.00 0.00 0.00 0.00 0.00
0.00 0.00 0.00 0.00 0.00 0.00 0.00 0.00 0.00 0.00 0.00 0.00 0.00 0.00 0.00 0.00 0.00 0.00 0.00 0.00 0.00 0.00 0.00 0.00 0.00 0.00 0.00 0.00 0.00 0.00 0.00 0.00 0.00 0.00 0.00 0.00 0.00 0.00 0.00 0.00 0.00 0.00 0.00 0.00 0.00 0.00 0.00 0.00 0.00
0.00 0.00 0.00 0.00 0.00 0.00 0.00 0.00 0.00 0.00 0.00 0.00 0.00 0.00 0.00 0.00 0.00 0.00 0.00 0.00 0.00 0.00 0.00 0.00 0.00 0.00 0.00 0.00 0.00 0.00 0.00 0.00 0.00 0.00 0.00 0.00 0.00 0.00 0.00 0.00 0.00 0.00 0.00 0.00 0.00 0.00 0.00 0.00 0.00
0.00 0.00 0.00 0.00 0.00 0.00 0.00 0.00 0.00 0.00 0.00 0.00 0.00 0.00 0.00 0.00 0.00 0.00 0.00 0.00 0.00 0.00 0.00 0.00 0.00 0.00 0.00 0.00 0.00 0.00 0.00 0.00 0.00 0.00 0.00 0.00 0.00 0.00 0.00 0.00 0.00 0.00 0.00 0.00 0.00 0.00 0.00 0.00 0.00
0.00 0.00 0.00 0.00 0.00 0.00 0.00 0.00 0.00 0.00 0.00 0.00 0.00 0.00 0.00 0.00 0.00 0.00 0.00 0.00 0.00 0.00 0.00 0.00 0.00 0.00 0.00 0.00 0.00 0.00 0.00 0.00 0.00 0.00 0.00 0.00 0.00 0.00 0.00 0.00 0.00 0.00 0.00 0.00 0.00 0.00 0.00 0.00 0.00
0.00 0.00 0.00 0.00 0.00 0.00 0.00 0.00 0.00 0.00 0.00 0.00 0.00 0.00 0.00 0.00 0.00 0.00 0.00 0.00 0.00 0.00 0.00 0.00 0.00 0.00 0.00 0.00 0.00 0.00 0.00 0.00 0.00 0.00 0.00 0.00 0.00 0.00 0.00 0.00 0.00 0.00 0.00 0.00 0.00 0.00 0.00 0.01 0.01
0.00 0.00 0.00 0.00 0.00 0.00 0.00 0.00 0.00 0.00 0.00 0.00 0.00 0.00 0.00 0.00 0.00 0.00 0.00 0.00 0.00 0.00 0.00 0.00 0.00 0.00 0.00 0.00 0.00 0.00 0.00 0.00 0.00 0.00 0.00 0.00 0.00 0.00 0.00 0.00 0.01 0.00 0.00 0.00 0.00 0.01 0.01 0.00 0.00
0.00 0.00 0.00 0.00 0.00 0.00 0.00 0.00 0.00 0.00 0.00 0.00 0.00 0.00 0.00 0.00 0.00 0.00 0.00 0.00 0.00 0.00 0.00 0.00 0.00 0.00 0.00 0.00 0.00 0.00 0.00 0.00 0.00 0.00 0.00 0.00 0.00 0.00 0.00 0.00 0.01 0.04 0.04 0.02 0.02 0.06 0.04 0.02 0.05
0.00 0.00 0.00 0.01 0.00 0.00 0.00 0.00 0.00 0.00 0.00 0.00 0.00 0.00 0.00 0.00 0.00 0.00 0.00 0.00 0.00 0.00 0.00 0.00 0.00 0.00 0.00 0.00 0.00 0.00 0.00 0.00 0.00 0.00 0.00 0.00 0.00 0.00 0.00 0.00 0.03 0.08 0.14 0.13 0.07 0.03 0.04 0.06 0.09
0.00 0.00 0.00 0.01 0.01 0.00 0.00 0.00 0.00 0.00 0.00 0.00 0.00 0.00 0.00 0.00 0.00 0.00 0.00 0.00 0.00 0.00 0.00 0.00 0.00 0.00 0.00 0.00 0.00 0.00 0.00 0.00 0.00 0.00 0.00 0.00 0.00 0.00 0.00 0.01 0.02 0.05 0.06 0.08 0.08 0.05 0.05 0.04 0.06
0.00 0.00 0.00 0.00 0.00 0.00 0.00 0.00 0.00 0.00 0.00 0.00 0.00 0.00 0.00 0.00 0.00 0.00 0.00 0.00 0.00 0.00 0.00 0.00 0.00 0.00 0.00 0.00 0.00 0.00 0.00 0.00 0.00 0.00 0.00 0.00 0.00 0.00 0.00 0.00 0.01 0.01 0.02 0.02 0.04 0.04 0.04 0.07 0.08
0.00 0.00 0.00 0.00 0.00 0.00 0.00 0.00 0.00 0.00 0.00 0.00 0.00 0.00 0.00 0.00 0.00 0.00 0.00 0.00 0.00 0.00 0.00 0.00 0.00 0.00 0.00 0.00 0.00 0.00 0.00 0.00 0.00 0.00 0.00 0.00 0.00 0.00 0.00 0.00 0.00 0.00 0.01 0.02 0.04 0.06 0.10 0.12 0.09
0.00 0.00 0.00 0.00 0.00 0.00 0.00 0.00 0.00 0.00 0.00 0.00 0.00 0.00 0.00 0.00 0.00 0.00 0.00 0.00 0.00 0.00 0.00 0.00 0.00 0.00 0.00 0.00 0.00 0.00 0.00 0.00 0.00 0.00 0.00 0.00 0.00 0.00 0.00 0.00 0.00 0.01 0.00 0.02 0.03 0.03 0.06 0.07 0.06
0.00 0.00 0.00 0.00 0.00 0.00 0.00 0.00 0.00 0.00 0.00 0.00 0.00 0.00 0.00 0.00 0.00 0.00 0.00 0.00 0.00 0.00 0.00 0.00 0.00 0.00 0.00 0.00 0.00 0.00 0.00 0.00 0.00 0.00 0.00 0.00 0.00 0.00 0.00 0.00 0.00 0.00 0.00 0.00 0.00 0.01 0.02 0.03 0.05
MSLP
1009.88 1009.85 1010.16 1010.41 1011.33 1011.01 1010.36 1009.11 1008.04 1007.83 1008.10 1007.83 1008.24 1009.00 1009.00 1009.27 1009.90 1010.96 1010.19 1010.41 1010.79 1011.89 1012.72 1013.30 1013.73 1014.05 1014.29 1014.59 1014.90 1015.06 1015.32 1015.56 1015.83 1016.23 1016.75 1017.18 1017.49 1017.77 1018.05 1018.32 1018.57 1018.75 1018.97 1019.15 1019.31 1019.54 1019.73 1019.95 1020.17
1009.76 1009.90 1010.23 1010.60 1011.26 1011.15 1010.07 1008.49 1007.73 1007.33 1007.37 1007.51 1007.94 1008.31 1008.59 1008.92 1009.34 1010.13 1010.59 1010.77 1010.89 1011.82 1012.77 1013.30 1013.73 1013.94 1014.25 1014.61 1015.03 1015.27 1015.50 1015.85 1016.18 1016.53 1016.98 1017.35 1017.71 1017.92 1018.09 1018.38 1018.65 1018.83 1019.06 1019.32 1019.54 1019.80 1020.06 1020.36 1020.60
1009.58 1009.76 1010.69 1011.38 1011.61 1010.81 1009.46 1008.09 1007.46 1007.05 1007.24 1007.27 1007.67 1007.79 1008.33 1008.78 1009.31 1009.80 1009.91 1010.56 1011.21 1012.09 1012.71 1013.31 1013.71 1014.00 1014.26 1014.69 1015.16 1015.37 1015.65 1016.00 1016.36 1016.61 1016.95 1017.39 1017.74 1017.94 1018.19 1018.38 1018.72 1019.00 1019.24 1019.58 1019.88 1020.11 1020.40 1020.64 1020.79
1009.89 1010.55 1011.75 1011.46 1011.28 1009.78 1008.72 1007.59 1006.95 1007.30 1007.26 1007.10 1007.52 1008.08 1008.40 1008.59 1009.13 1009.39 1010.00 1010.70 1011.34 1012.11 1012.57 1013.20 1013.70 1013.99 1014.25 1014.81 1015.25 1015.57 1015.81 1016.04 1016.38 1016.73 1016.96 1017.31 1017.65 1018.04 1018.27 1018.49 1018.75 1019.04 1019.37 1019.74 1020.10 1020.52 1020.85 1021.01 1021.10
1010.64 1011.59 1012.27 1012.14 1010.97 1009.45 1008.31 1007.33 1006.65 1007.02 1007.05 1007.29 1007.65 1008.22 1008.73 1009.26 1009.62 1009.96 1010.26 1010.86 1011.44 1012.28 1012.76 1013.34 1013.69 1014.01 1014.39 1014.86 1015.27 1015.68 1016.04 1016.25 1016.45 1016.79 1017.02 1017.32 1017.62 1018.00 1018.44 1018.74 1019.01 1019.24 1019.57 1019.87 1020.24 1020.52 1020.84 1021.08 1021.22
1011.48 1012.44 1012.81 1012.40 1010.89 1009.33 1008.33 1007.36 1006.87 1006.70 1006.73 1007.08 1007.65 1008.27 1009.15 1009.74 1010.12 1010.60 1010.86 1011.31 1011.69 1012.25 1012.90 1013.47 1013.93 1014.20 1014.55 1015.00 1015.31 1015.71 1016.14 1016.44 1016.57 1016.85 1017.11 1017.39 1017.60 1018.11 1018.43 1018.82 1019.17 1019.47 1019.75 1019.98 1020.22 1020.65 1020.98 1021.16 1021.37
1011.80 1012.80 1012.73 1011.99 1010.74 1009.37 1008.09 1007.28 1006.91 1006.36 1006.55 1006.74 1007.13 1008.49 1009.46 1009.93 1010.38 1010.91 1011.34 1011.68 1012.10 1012.49 1013.16 1013.69 1013.93 1014.29 1014.70 1015.05 1015.44 1015.66 1016.09 1016.51 1016.88 1017.01 1017.25 1017.67 1017.86 1018.13 1018.41 1018.85 1019.29 1019.66 1019.89 1020.08 1020.41 1020.62 1020.88 1021.21 1021.44
1011.82 1012.76 1012.74 1011.69 1010.63 1009.06 1007.93 1007.26 1006.20 1006.10 1006.08 1006.44 1006.84 1008.09 1009.10 1009.58 1010.46 1011.18 1011.75 1012.20 1012.69 1013.05 1013.38 1013.84 1014.12 1014.32 1014.74 1015.13 1015.46 1015.74 1015.95 1016.43 1016.86 1017.23 1017.53 1017.84 1018.07 1018.32 1018.46 1018.92 1019.36 1019.77 1019.97 1020.08 1020.44 1020.66 1021.08 1021.36 1021.46
1011.48 1012.65 1012.81 1011.30 1010.26 1008.94 1008.19 1007.82 1006.53 1005.90 1006.09 1006.36 1007.04 1007.67 1008.11 1009.38 1010.42 1011.36 1012.26 1012.74 1013.06 1013.43 1013.55 1013.69 1014.16 1014.40 1014.68 1015.12 1015.60 1015.88 1016.07 1016.39 1016.77 1017.13 1017.50 1017.88 1018.19 1018.48 1018.67 1018.94 1019.22 1019.64 1020.06 1020.19 1020.46 1020.69 1021.00 1021.18 1021.38
1011.56 1012.57 1011.96 1010.48 1009.53 1009.14 1008.53 1008.05 1007.22 1006.60 1006.43 1006.79 1007.43 1008.31 1008.82 1009.55 1010.19 1011.01 1011.79 1012.21 1012.74 1013.07 1013.37 1013.60 1013.92 1014.26 1014.67 1014.96 1015.56 1016.00 1016.22 1016.47 1016.73 1017.07 1017.40 1017.89 1018.23 1018.53 1018.75 1018.98 1019.13 1019.37 1019.77 1020.22 1020.46 1020.63 1020.88 1021.01 1021.32
1011.40 1011.42 1010.92 1009.96 1009.42 1009.05 1008.72 1008.03 1007.44 1007.09 1006.99 1006.57 1007.04 1008.48 1009.18 1009.69 1010.37 1010.84 1011.40 1011.31 1010.99 1012.25 1013.11 1013.24 1013.58 1014.08 1014.50 1014.79 1015.32 1015.92 1016.19 1016.46 1016.75 1016.98 1017.37 1017.78 1018.21 1018.57 1018.88 1019.18 1019.38 1019.47 1019.63 1020.01 1020.24 1020.61 1020.90 1021.06 1021.31
1011.00 1010.47 1010.17 1009.67 1009.31 1009.22 1009.10 1008.58 1007.76 1007.16 1006.54 1006.34 1006.77 1007.75 1008.69 1009.43 1009.94 1010.31 1010.82 1011.10 1011.48 1011.87 1012.41 1012.90 1013.26 1013.72 1014.21 1014.60 1014.96 1015.37 1015.98 1016.28 1016.70 1016.98 1017.29 1017.81 1018.11 1018.39 1018.57 1018.94 1019.33 1019.62 1019.67 1019.95 1020.12 1020.31 1020.82 1021.08 1021.10
1010.76 1010.28 1009.84 1009.41 1009.29 1009.16 1008.80 1008.51 1008.24 1007.23 1006.68 1006.59 1007.02 1008.00 1008.63 1008.87 1009.24 1009.69 1010.20 1010.88 1011.31 1011.52 1011.91 1012.42 1012.94 1013.23 1013.64 1014.31 1014.64 1015.02 1015.52 1016.06 1016.40 1016.89 1017.18 1017.50 1017.96 1018.27 1018.43 1018.71 1019.05 1019.37 1019.67 1019.93 1020.19 1020.36 1020.38 1020.71 1021.03
1010.33 1010.23 1009.71 1009.32 1008.96 1008.63 1008.66 1008.14 1008.01 1007.11 1006.60 1007.16 1007.34 1007.93 1008.56 1008.72 1008.67 1009.42 1010.06 1010.34 1010.64 1011.03 1011.26 1011.88 1012.39 1012.83 1013.13 1013.65 1014.16 1014.60 1014.96 1015.49 1016.04 1016.41 1016.77 1017.06 1017.39 1017.82 1018.27 1018.61 1018.77 1019.15 1019.50 1019.88 1020.18 1020.31 1020.55 1020.51 1020.70
1010.28 1010.56 1010.00 1009.17 1008.80 1008.41 1008.19 1007.95 1007.78 1006.90 1007.08 1007.24 1007.76 1008.00 1008.20 1008.33 1008.84 1008.79 1008.61 1009.26 1009.42 1009.80 1010.76 1011.12 1011.83 1012.45 1012.84 1013.18 1013.60 1013.93 1014.43 1014.96 1015.46 1015.87 1016.29 1016.75 1017.16 1017.44 1017.74 1018.19 1018.58 1018.81 1019.10 1019.54 1020.16 1020.53 1020.68 1020.90 1020.78
1010.71 1010.76 1010.25 1008.95 1008.50 1008.11 1007.91 1007.61 1007.30 1006.67 1007.49 1007.96 1007.89 1008.08 1008.28 1008.11 1008.00 1008.09 1008.30 1008.53 1009.00 1009.57 1009.89 1010.72 1011.26 1011.90 1012.34 1012.63 1013.22 1013.54 1013.91 1014.38 1014.81 1015.36 1015.82 1016.24 1016.65 1016.99 1017.43 1017.79 1018.13 1018.42 1018.96 1019.34 1019.55 1020.11 1020.63 1020.80 1020.91
1011.20 1010.94 1010.40 1009.50 1008.43 1008.15 1007.96 1007.62 1007.18 1006.72 1007.31 1007.81 1008.31 1008.40 1008.55 1008.34 1008.09 1007.73 1007.67 1007.88 1008.21 1008.46 1009.15 1009.87 1010.41 1010.84 1011.40 1012.26 1012.78 1013.25 1013.65 1013.94 1014.30 1014.74 1015.17 1015.55 1016.03 1016.54 1016.97 1017.24 1017.61 1018.08 1018.57 1018.91 1019.42 1019.77 1019.95 1020.44 1020.69
1010.89 1011.19 1010.72 1009.83 1008.73 1008.49 1008.40 1008.07 1007.17 1006.91 1007.34 1007.76 1007.82 1007.78 1008.16 1008.13 1007.55 1007.00 1006.91 1007.11 1007.30 1007.67 1008.18 1008.96 1009.73 1010.31 1010.99 1011.92 1012.61 1013.09 1013.53 1013.63 1013.75 1013.92 1014.21 1014.76 1015.24 1015.83 1016.43 1016.85 1017.23 1017.65 1018.21 1018.70 1019.04 1019.45 1019.77 1019.71 1019.98
1010.47 1010.61 1010.45 1010.01 1009.26 1009.17 1008.75 1008.74 1008.21 1007.80 1007.39 1007.68 1007.79 1007.68 1007.14 1006.86 1006.02 1006.17 1005.98 1005.94 1006.64 1007.17 1007.73 1008.11 1008.82 1009.28 1010.32 1011.05 1011.73 1012.32 1012.23 1012.81 1013.17 1013.22 1013.50 1013.93 1014.44 1015.08 1015.67 1016.19 1016.74 1017.12 1017.56 1017.85 1018.36 1018.82 1019.24 1019.64 1019.66
1010.57 1010.48 1010.29 1010.17 1009.59 1009.70 1009.31 1008.81 1008.43 1007.82 1007.15 1006.89 1006.98 1007.14 1006.83 1006.47 1005.80 1005.44 1005.24 1005.43 1005.83 1005.98 1006.38 1007.13 1007.56 1008.34 1008.83 1009.54 1009.90 1010.76 1011.38 1011.94 1012.32 1012.76 1012.95 1013.20 1013.65 1014.20 1014.83 1015.38 1015.92 1016.36 1016.97 1017.40 1017.78 1018.19 1018.67 1018.77 1019.16
1010.20 1009.98 1010.09 1010.12 1009.70 1009.37 1009.49 1008.45 1007.92 1006.87 1006.26 1006.01 1005.74 1005.51 1005.64 1005.72 1005.46 1004.66 1004.78 1004.53 1005.15 1005.52 1005.60 1005.87 1006.17 1006.67 1007.41 1008.13 1009.42 1010.33 1010.89 1011.50 1011.96 1011.93 1012.09 1012.18 1012.64 1013.25 1013.78 1014.30 1014.81 1015.48 1015.98 1016.38 1016.79 1017.19 1017.59 1018.10 1018.51
1009.17 1009.38 1009.86 1010.14 1010.52 1010.00 1009.47 1008.20 1006.90 1006.11 1005.31 1005.18 1004.60 1004.82 1004.59 1004.71 1004.39 1004.03 1004.16 1004.48 1004.62 1004.29 1004.65 1005.05 1005.58 1005.88 1006.44 1007.42 1008.26 1008.83 1008.87 1009.77 1009.65 1010.16 1010.98 1011.53 1011.87 1012.38 1012.93 1013.38 1013.89 1014.53 1014.99 1015.39 1015.70 1016.18 1016.59 1017.12 1017.55
1008.09 1008.99 1009.53 1009.95 1010.19 1010.31 1009.88 1009.79 1005.38 1005.18 1004.74 1003.83 1003.96 1004.12 1003.87 1003.61 1003.41 1003.25 1003.11 1003.14 1003.59 1003.88 1004.11 1004.35 1004.85 1005.51 1005.91 1006.24 1006.82 1007.73 1008.35 1008.46 1008.98 1009.70 1010.37 1010.93 1011.40 1011.68 1012.10 1012.54 1013.08 1013.63 1014.17 1014.43 1014.81 1015.36 1015.72 1015.97 1016.39
1008.21 1008.79 1008.95 1009.51 1009.94 1009.96 1008.30 1009.30 1003.24 1004.46 1003.34 1003.32 1003.18 1003.12 1002.89 1002.74 1002.56 1002.44 1002.59 1002.81 1002.92 1003.54 1003.76 1003.97 1004.21 1004.31 1004.76 1005.53 1005.98 1006.55 1007.19 1007.95 1008.49 1009.12 1009.67 1010.16 1010.71 1011.14 1011.49 1011.83 1012.36 1012.74 1013.24 1013.65 1013.92 1014.33 1014.77 1015.00 1015.41
1008.17 1008.47 1009.02 1009.47 1009.67 1007.59 1007.16 1007.98 1003.57 1002.38 1002.41 1002.22 1002.53 1002.44 1002.12 1002.04 1001.97 1002.26 1002.44 1002.94 1003.07 1003.13 1003.41 1003.64 1003.66 1003.75 1004.16 1004.61 1005.28 1005.74 1006.29 1007.11 1007.50 1008.10 1008.74 1009.40 1010.05 1010.47 1010.63 1011.06 1011.53 1011.89 1012.25 1012.78 1013.26 1013.69 1014.06 1014.32 1014.63
1007.30 1007.68 1007.46 1007.84 1007.83 1006.47 1006.91 1005.56 1001.74 1001.60 1001.89 1001.83 1001.95 1001.98 1001.79 1001.86 1001.75 1001.78 1002.06 1002.54 1002.48 1002.38 1002.68 1002.87 1002.81 1003.03 1003.38 1003.84 1004.30 1004.91 1005.59 1006.23 1006.77 1007.30 1007.85 1008.43 1008.90 1009.23 1009.68 1010.22 1010.70 1011.04 1011.48 1011.90 1012.46 1012.80 1013.19 1013.53 1013.87
1006.70 1007.12 1006.39 1007.46 1007.26 1006.74 1005.42 1004.07 1002.60 1001.56 1001.26 1001.27 1001.28 1001.42 1001.68 1001.51 1001.49 1001.40 1001.54 1001.48 1001.28 1001.38 1001.47 1001.75 1002.07 1002.51 1002.80 1003.29 1003.86 1004.44 1004.97 1005.65 1006.16 1006.67 1007.15 1007.65 1008.10 1008.56 1009.02 1009.51 1009.98 1010.39 1010.81 1011.22 1011.67 1012.03 1012.33 1012.63 1012.95
1006.15 1006.57 1007.12 1007.41 1007.11 1006.82 1005.16 1003.93 1002.31 1001.23 1001.06 1000.99 1001.15 1001.19 1001.08 1001.15 1001.45 1001.42 1001.13 1000.50 1000.37 1000.60 1000.79 1001.06 1001.31 1001.74 1002.02 1002.72 1003.26 1003.84 1004.39 1005.11 1005.77 1006.33 1006.84 1007.25 1007.67 1008.15 1008.63 1009.16 1009.53 1009.97 1010.31 1010.70 1011.09 1011.41 1011.61 1011.88 1012.26
1006.06 1006.05 1006.38 1006.35 1006.25 1005.96 1004.78 1002.87 1001.89 1001.29 1001.14 1001.05 1000.65 1000.28 1000.86 1000.76 1000.73 1000.89 1000.42 1000.14 1000.14 1000.29 1000.32 1000.35 1000.92 1001.31 1001.91 1002.45 1002.94 1003.57 1004.36 1005.01 1005.54 1005.97 1006.39 1006.87 1007.39 1007.83 1008.29 1008.67 1009.11 1009.43 1009.88 1010.13 1010.52 1010.87 1011.25 1011.60 1012.04
1005.40 1005.07 1005.67 1005.60 1005.50 1005.02 1004.08 1001.78 1001.02 1000.97 1000.91 1001.09 1000.83 1000.48 1000.60 1000.57 1000.52 1000.44 1000.36 1000.68 1000.32 1000.14 1000.22 1000.07 1000.49 1000.83 1001.46 1001.95 1002.41 1003.29 1004.00 1004.49 1005.03 1005.59 1006.06 1006.60 1007.16 1007.48 1007.83 1008.24 1008.58 1008.87 1009.37 1009.76 1010.12 1010.48 1010.73 1011.10 1011.67
Thickness
5808 5810 5809 5801 5773 5762 5759 5779 5798 5796 5793 5807 5804 5792 5789 5792 5781 5756 5799 5798 5795 5785 5775 5769 5761 5756 5754 5750 5746 5743 5740 5738 5736 5732 5727 5722 5718 5715 5712 5709 5706 5704 5703 5702 5701 5700 5700 5700 5699
5809 5809 5804 5785 5757 5744 5754 5784 5793 5799 5808 5808 5808 5803 5797 5791 5801 5794 5793 5797 5795 5786 5776 5770 5763 5759 5756 5752 5747 5744 5741 5738 5734 5731 5726 5723 5719 5717 5715 5712 5708 5707 5705 5704 5702 5700 5699 5699 5698
5809 5808 5787 5763 5738 5749 5757 5790 5798 5808 5808 5811 5806 5813 5804 5798 5803 5800 5806 5800 5793 5784 5777 5770 5765 5761 5757 5753 5748 5746 5743 5739 5735 5732 5729 5725 5721 5719 5716 5714 5711 5708 5706 5703 5701 5701 5700 5699 5698
5801 5793 5777 5756 5760 5774 5784 5800 5806 5800 5808 5815 5810 5797 5811 5816 5808 5811 5808 5801 5795 5786 5780 5772 5766 5762 5759 5753 5749 5745 5743 5741 5737 5733 5730 5727 5723 5720 5719 5716 5713 5710 5707 5704 5702 5700 5698 5698 5697
5789 5773 5750 5747 5757 5774 5790 5802 5806 5799 5805 5807 5809 5795 5800 5810 5811 5810 5808 5803 5795 5786 5779 5772 5767 5763 5759 5754 5750 5745 5741 5740 5738 5734 5732 5728 5726 5723 5720 5717 5714 5711 5709 5706 5704 5702 5700 5699 5698
5767 5760 5738 5740 5756 5775 5783 5799 5805 5807 5811 5809 5802 5799 5801 5809 5807 5805 5805 5800 5794 5787 5779 5772 5766 5763 5759 5754 5751 5746 5742 5739 5737 5735 5733 5730 5728 5723 5721 5719 5716 5713 5711 5710 5708 5704 5701 5699 5698
5757 5744 5739 5749 5755 5766 5788 5799 5800 5805 5806 5807 5814 5793 5800 5805 5806 5804 5801 5797 5791 5785 5777 5771 5768 5763 5759 5755 5752 5749 5744 5739 5735 5734 5733 5729 5728 5725 5723 5719 5716 5714 5712 5711 5708 5707 5704 5700 5697
5752 5744 5743 5747 5750 5766 5789 5794 5812 5809 5804 5822 5820 5795 5796 5808 5805 5802 5797 5792 5787 5782 5776 5771 5767 5765 5760 5756 5752 5750 5747 5742 5737 5733 5731 5728 5727 5725 5724 5720 5716 5713 5713 5713 5710 5708 5702 5700 5699
5757 5727 5723 5752 5751 5772 5782 5782 5807 5819 5811 5818 5818 5814 5818 5811 5805 5797 5790 5785 5782 5778 5776 5772 5767 5765 5762 5757 5752 5749 5746 5743 5739 5735 5732 5729 5727 5725 5723 5722 5719 5715 5713 5713 5711 5709 5705 5703 5702
5738 5717 5732 5760 5769 5769 5773 5781 5792 5801 5803 5806 5807 5809 5811 5808 5804 5796 5790 5788 5783 5780 5777 5775 5770 5766 5762 5759 5753 5749 5745 5743 5740 5737 5734 5730 5727 5725 5723 5722 5722 5719 5717 5713 5711 5710 5708 5707 5704
5732 5727 5744 5761 5769 5772 5771 5774 5790 5791 5789 5805 5807 5801 5804 5803 5798 5795 5791 5795 5798 5788 5780 5778 5773 5767 5763 5760 5755 5750 5747 5744 5741 5738 5735 5732 5727 5724 5722 5720 5719 5720 5719 5716 5713 5710 5708 5708 5706
5732 5742 5752 5761 5765 5763 5761 5769 5777 5790 5800 5814 5815 5811 5806 5801 5798 5797 5794 5793 5792 5788 5785 5780 5776 5771 5765 5762 5758 5753 5748 5745 5742 5739 5736 5731 5729 5726 5725 5722 5719 5718 5718 5717 5715 5713 5708 5706 5707
5725 5739 5748 5755 5755 5757 5764 5765 5765 5782 5799 5808 5808 5805 5803 5804 5803 5802 5800 5796 5792 5790 5787 5783 5778 5775 5769 5763 5760 5756 5751 5746 5743 5739 5736 5733 5729 5726 5725 5723 5721 5718 5717 5716 5715 5713 5711 5708 5706
5726 5731 5740 5748 5754 5757 5758 5765 5765 5782 5795 5795 5799 5798 5798 5802 5804 5800 5795 5795 5793 5793 5791 5785 5781 5777 5772 5768 5763 5759 5755 5750 5744 5741 5737 5735 5732 5728 5724 5722 5721 5718 5716 5712 5711 5711 5709 5708 5705
5717 5713 5724 5739 5750 5751 5754 5753 5755 5781 5786 5787 5787 5792 5796 5800 5800 5802 5805 5799 5801 5801 5794 5790 5784 5779 5774 5771 5766 5763 5758 5753 5748 5744 5739 5735 5732 5729 5726 5722 5719 5718 5716 5713 5708 5705 5704 5703 5704
5701 5704 5700 5735 5742 5752 5749 5735 5762 5777 5771 5771 5778 5782 5788 5795 5801 5805 5805 5803 5800 5797 5797 5792 5787 5781 5777 5773 5768 5764 5761 5756 5752 5747 5742 5738 5733 5730 5726 5722 5719 5717 5713 5711 5709 5705 5701 5699 5699
5680 5672 5687 5714 5736 5740 5735 5732 5759 5774 5767 5766 5765 5770 5776 5782 5792 5802 5806 5805 5803 5802 5799 5795 5791 5787 5782 5775 5770 5765 5761 5757 5754 5749 5745 5741 5736 5731 5727 5723 5719 5715 5712 5709 5705 5703 5702 5697 5695
5667 5666 5679 5694 5725 5725 5722 5721 5753 5766 5763 5760 5764 5767 5769 5776 5787 5801 5806 5808 5808 5805 5801 5797 5792 5788 5783 5775 5769 5765 5759 5757 5755 5753 5750 5745 5739 5733 5727 5723 5718 5714 5710 5706 5702 5699 5697 5698 5694
5675 5669 5678 5687 5704 5706 5709 5708 5724 5738 5748 5749 5752 5759 5770 5779 5796 5798 5805 5810 5809 5804 5801 5799 5793 5791 5783 5777 5771 5767 5766 5761 5757 5755 5752 5748 5742 5736 5730 5724 5718 5712 5709 5707 5702 5699 5695 5691 5690
5658 5658 5663 5676 5688 5689 5689 5695 5709 5727 5742 5753 5756 5758 5765 5774 5785 5794 5798 5803 5803 5807 5807 5803 5799 5794 5790 5785 5783 5776 5770 5765 5762 5756 5753 5749 5745 5740 5733 5727 5721 5715 5708 5704 5701 5696 5692 5692 5687
5643 5649 5662 5665 5676 5681 5679 5683 5700 5727 5739 5751 5760 5769 5772 5773 5779 5791 5795 5800 5800 5801 5805 5807 5805 5802 5797 5791 5781 5773 5769 5764 5759 5759 5757 5755 5749 5743 5738 5732 5726 5719 5713 5708 5702 5698 5694 5687 5684
5632 5655 5659 5653 5645 5642 5665 5655 5695 5716 5735 5745 5759 5763 5770 5774 5782 5788 5792 5792 5794 5803 5806 5808 5805 5801 5797 5790 5783 5779 5779 5771 5774 5769 5763 5758 5752 5745 5739 5734 5729 5723 5717 5712 5708 5700 5694 5688 5683
5635 5648 5640 5641 5630 5631 5641 5623 5692 5711 5720 5751 5753 5758 5767 5777 5782 5787 5794 5799 5797 5796 5798 5802 5801 5796 5795 5793 5789 5781 5778 5778 5773 5768 5762 5758 5752 5747 5741 5736 5731 5726 5720 5715 5710 5702 5696 5691 5686
5635 5631 5632 5623 5611 5592 5647 5629 5702 5705 5724 5743 5755 5760 5768 5775 5781 5785 5793 5794 5795 5789 5789 5793 5797 5799 5796 5791 5788 5783 5780 5774 5769 5764 5761 5756 5752 5747 5742 5736 5731 5726 5721 5716 5712 5706 5698 5694 5687
5600 5603 5587 5583 5574 5595 5660 5619 5682 5712 5729 5743 5748 5754 5763 5769 5777 5779 5782 5782 5784 5784 5783 5785 5791 5792 5792 5788 5785 5782 5779 5773 5770 5765 5761 5755 5749 5744 5741 5737 5731 5726 5721 5715 5710 5704 5697 5692 5687
5592 5597 5585 5582 5586 5617 5631 5602 5681 5718 5732 5742 5742 5746 5755 5760 5769 5775 5776 5776 5779 5783 5782 5784 5788 5789 5788 5786 5784 5781 5777 5773 5768 5763 5759 5755 5750 5746 5742 5736 5732 5727 5721 5714 5707 5702 5697 5692 5686
5585 5568 5617 5585 5593 5590 5610 5635 5679 5703 5709 5725 5735 5743 5749 5755 5762 5769 5771 5774 5781 5783 5785 5786 5785 5782 5783 5782 5778 5777 5774 5769 5764 5760 5757 5753 5749 5744 5739 5734 5729 5725 5719 5714 5707 5701 5696 5691 5686
5571 5593 5570 5569 5557 5566 5589 5610 5645 5685 5702 5715 5722 5730 5741 5746 5750 5751 5761 5774 5777 5780 5782 5782 5782 5778 5778 5776 5774 5772 5768 5763 5758 5754 5750 5746 5742 5737 5732 5726 5722 5717 5713 5708 5702 5697 5693 5689 5684
5562 5559 5565 5574 5573 5564 5581 5606 5649 5674 5690 5694 5714 5731 5731 5738 5742 5743 5754 5763 5768 5772 5776 5777 5773 5771 5768 5767 5764 5762 5757 5753 5749 5747 5743 5739 5734 5729 5724 5720 5716 5712 5707 5703 5697 5692 5687 5682 5676
5563 5565 5569 5556 5561 5566 5582 5601 5658 5665 5676 5682 5690 5707 5717 5725 5731 5735 5742 5746 5754 5760 5763 5769 5765 5764 5763 5761 5759 5753 5748 5746 5742 5738 5735 5730 5725 5721 5718 5714 5711 5706 5700 5695 5690 5685 5681 5675 5668